Weather History for GMMX - January, 2014

Change the Weather History Date:

Tuesday, January 28, 2014

  Actual Average Record
Temperature  
Mean Temperature 54 °F -  
Max Temperature 62 °F 67 °F 78 °F (2002)
Min Temperature 46 °F 45 °F 32 °F (2005)
Degree Days  
Heating Degree Days 11    
Growing Degree Days 4 (Base 50)    
Moisture  
Dew Point 49 °F    
Average Humidity 86    
Maximum Humidity 100    
Minimum Humidity 59    
Precipitation  
Precipitation 0.00 in 0.05 in - ()
Sea Level Pressure  
Sea Level Pressure 30.05 in    
Wind  
Wind Speed 5 mph ()    
Max Wind Speed 9 mph    
Max Gust Speed -    
Visibility 4.7 miles    
Events Fog    
Averages and records for this station are not official NWS values.
T = Trace of Precipitation, MM = Missing Value Source: Averaged Metar Reports

Daily Weather History Graph

Daily Weather History Graph

Search for Another Location

Airport or City:

Trip Planner

Search our weather history database for the weather conditions in past years. The results will help you decide how hot, cold, wet, or windy it might be!

Date:

Astronomy

Jan. 28, 2014 Rise Set
Actual Time 7:27 AM WET 6:02 PM WET
Civil Twilight 7:01 AM WET 6:28 PM WET
Nautical Twilight 6:32 AM WET 6:58 PM WET
Astronomical Twilight 6:03 AM WET 7:26 PM WET
Moon 4:53 AM WET (1/28) 3:40 PM WET (1/28)
Length of Visible Light 11h 26m
Length of Day
10h 35m
Waning Crescent, 9% of the Moon is Illuminated
Jan 28
Waning Crescent
Jan 30
New
Feb 6
First Quarter
Feb 14
Full
Feb 22
Last Quarter

Hourly Weather History & Observations

Time (WET) Temp. Windchill Dew Point Humidity Pressure Visibility Wind Dir Wind Speed Gust Speed Precip Events Conditions
12:00 AM 51 °F - 49 °F 92% 30.21 in 6 mi East 4.6 mph - -   Clear
12:00 AM 51.8 °F - 50.0 °F 94% 30.18 in - East 3.5 mph - N/A   Unknown
12:30 AM 50.0 °F - 50.0 °F 100% 30.18 in 5.0 mi East 3.5 mph - N/A   Light Drizzle
1:00 AM 50.0 °F - 48.2 °F 94% 30.18 in 5.0 mi East 4.6 mph - N/A   Unknown
1:30 AM 50.0 °F - 48.2 °F 94% 30.18 in 3.7 mi ENE 5.8 mph - N/A   Unknown
2:00 AM 50.0 °F - 48.2 °F 94% 30.18 in 3.7 mi ENE 4.6 mph - N/A   Light Drizzle
2:30 AM 50.0 °F - 50.0 °F 100% 30.18 in 4.3 mi ESE 4.6 mph - N/A   Unknown
3:00 AM 51 °F - 50 °F 96% 30.18 in 4 mi East 4.6 mph - -  
3:00 AM 50.0 °F - 50.0 °F 100% 30.15 in 4.3 mi East 4.6 mph - N/A   Unknown
3:03 AM 50.0 °F - 50.0 °F 100% 30.15 in 4.3 mi East 4.6 mph - N/A   Mostly Cloudy
4:00 AM 51.8 °F - 50.0 °F 94% 30.12 in 4.3 mi East 6.9 mph - N/A   Mostly Cloudy
4:30 AM 50.0 °F - 50.0 °F 100% 30.12 in 3.7 mi East 4.6 mph - N/A   Light Drizzle
4:46 AM 48.2 °F - 48.2 °F 100% 30.09 in 3.7 mi East 4.6 mph - N/A   Scattered Clouds
5:00 AM 48.2 °F - 48.2 °F 100% 30.09 in 3.7 mi East 4.6 mph - N/A   Scattered Clouds
5:30 AM 48.2 °F - 48.2 °F 100% 30.09 in 3.1 mi East 5.8 mph - N/A   Light Drizzle
6:00 AM 48 °F - 48 °F 99% 30.12 in 3 mi East 6.9 mph - -  
6:00 AM 48.2 °F - 48.2 °F 100% 30.09 in 3.1 mi East 6.9 mph - N/A   Unknown
6:30 AM 48.2 °F - 48.2 °F 100% 30.09 in 3.1 mi East 5.8 mph - N/A   Light Drizzle
7:00 AM 46.4 °F 44.3 °F 46.4 °F 100% 30.09 in 3.1 mi East 4.6 mph - N/A   Unknown
7:28 AM 46.4 °F 43.5 °F 46.4 °F 100% 30.06 in 0.5 mi ENE 5.8 mph - N/A Fog Fog
7:30 AM 46.4 °F 43.5 °F 46.4 °F 100% 30.06 in 1.9 mi East 5.8 mph - N/A   Light Drizzle
8:00 AM 48.2 °F - 48.2 °F 100% 30.06 in 0.2 mi ENE 4.6 mph - N/A   Mostly Cloudy
8:30 AM 48.2 °F - 48.2 °F 100% 30.06 in 0.2 mi ENE 4.6 mph - N/A Fog Fog
9:00 AM 48 °F - 48 °F 100% 30.09 in 0 mi East 3.5 mph - -   Mist
9:00 AM 48.2 °F - 48.2 °F 100% 30.06 in 0.4 mi East 3.5 mph - N/A Fog Fog
9:30 AM 48.2 °F - 48.2 °F 100% 30.06 in 0.6 mi East 4.6 mph - N/A Fog Fog
10:00 AM 50.0 °F - 50.0 °F 100% 30.06 in 1.2 mi East 4.6 mph - N/A   Mostly Cloudy
10:30 AM 53.6 °F - 53.6 °F 100% 30.06 in 5.6 mi ESE 4.6 mph - N/A   Scattered Clouds
10:36 AM 53.6 °F - 53.6 °F 100% 30.06 in 5.6 mi East 4.6 mph - N/A   Partly Cloudy
11:00 AM 55.4 °F - 51.8 °F 88% 30.06 in 5.6 mi ESE 4.6 mph - N/A   Partly Cloudy
11:30 AM 57.2 °F - 51.8 °F 82% 30.06 in 6.2 mi NNE 5.8 mph - N/A   Partly Cloudy
12:00 PM 58 °F - 52 °F 75% 30.06 in 6 mi NNE 6.9 mph - -   Clear
12:00 PM 59.0 °F - 51.8 °F 77% 30.06 in 6.2 mi NNE 6.9 mph - N/A   Mostly Cloudy
12:30 PM 59.0 °F - 53.6 °F 82% 30.06 in 6.2 mi North 6.9 mph - N/A   Mostly Cloudy
1:00 PM 59.0 °F - 51.8 °F 77% 30.04 in 6.2 mi North 9.2 mph - N/A   Mostly Cloudy
1:30 PM 59.0 °F - 51.8 °F 77% 30.04 in 6.2 mi North 6.9 mph - N/A   Mostly Cloudy
2:00 PM 60.8 °F - 51.8 °F 72% 30.01 in 6.2 mi NNE 5.8 mph - N/A   Mostly Cloudy
2:30 PM 60.8 °F - 50.0 °F 68% 30.01 in 6.2 mi NNE 8.1 mph - N/A   Mostly Cloudy
3:00 PM 60 °F - 50 °F 60% 29.97 in 6 mi NE 5.8 mph - -   Clear
3:00 PM 60.8 °F - 50.0 °F 68% 30.01 in 6.2 mi NNE 9.2 mph - N/A   Mostly Cloudy
3:30 PM 60.8 °F - 50.0 °F 68% 29.98 in 6.2 mi NNE 6.9 mph - N/A   Mostly Cloudy
4:00 PM 62.6 °F - 50.0 °F 63% 29.98 in 6.2 mi NNE 6.9 mph - N/A   Scattered Clouds
4:30 PM 60.8 °F - 50.0 °F 68% 29.98 in 6.2 mi NNE 6.9 mph - N/A   Scattered Clouds
5:00 PM 60.8 °F - 48.2 °F 63% 29.98 in 6.2 mi ENE 5.8 mph - N/A   Scattered Clouds
5:30 PM 60.8 °F - 50.0 °F 68% 29.95 in 6.2 mi ENE 5.8 mph - N/A   Scattered Clouds
6:00 PM 60 °F - 49 °F 59% 29.95 in 6 mi NE 3.5 mph - -   Partly Cloudy
6:00 PM 60.8 °F - 50.0 °F 68% 29.98 in 6.2 mi ENE 4.6 mph - N/A   Scattered Clouds
6:30 PM 59.0 °F - 50.0 °F 72% 29.98 in 6.2 mi NE 2.3 mph - N/A   Scattered Clouds
7:00 PM 59.0 °F - 48.2 °F 67% 29.95 in 6.2 mi NE 3.5 mph - N/A   Scattered Clouds
7:30 PM 57.2 °F - 48.2 °F 72% 29.98 in 6.2 mi North 5.8 mph - N/A   Scattered Clouds
8:00 PM 57.2 °F - 46.4 °F 67% 29.98 in 6.2 mi North 9.2 mph - N/A   Scattered Clouds
8:30 PM 57.2 °F - 46.4 °F 67% 29.98 in 6.2 mi NNE 9.2 mph - N/A   Scattered Clouds
9:00 PM 54 °F - 47 °F 69% 29.99 in 6 mi NNE 9.2 mph - -   Partly Cloudy
9:00 PM 53.6 °F - 46.4 °F 77% 29.98 in 6.2 mi NNE 9.2 mph - N/A   Scattered Clouds
9:30 PM 53.6 °F - 46.4 °F 77% 29.98 in 6.2 mi NNE 5.8 mph - N/A   Scattered Clouds
10:00 PM 51.8 °F - 46.4 °F 82% 29.98 in 6.2 mi NNE 3.5 mph - N/A   Scattered Clouds
10:30 PM 51.8 °F - 46.4 °F 82% 29.98 in 6.2 mi East 5.8 mph - N/A   Scattered Clouds
11:00 PM 50.0 °F - 46.4 °F 87% 29.98 in 6.2 mi East 4.6 mph - N/A   Scattered Clouds
11:30 PM 50.0 °F - 46.4 °F 87% 29.95 in 6.2 mi East 3.5 mph - N/A   Scattered Clouds